EXS19H LEAL-EGNM

Flight info

Callsign EXS19H
Flight time N/A
Altitude 34000
Route MITO3A MITOS N608 COMPI Y90 USKAR MOPAS GIROM GONUP TUPAR UN861 ANG AKIKI UN867 AVANT UM184 HEMEL T420 TNT N57 DENBY LBA
Aircraft B733/M-SDE2E3FHIRW/S

Departure

Time 2026-04-28 16:02
Airport Alicante-Elche Miguel Hernández Airport (LEAL)

Arrival

Time N/A
Airport Leeds Bradford Airport (EGNM)
Time Latitude Longitude Altitude Speed Heading
2026-04-28 15:34 38.28632 -0.55997 105 ft 0 kts 10°
2026-04-28 15:51 38.28626 -0.55999 107 ft 2 kts 10°
2026-04-28 15:52 38.28611 -0.56002 107 ft 1 kts 10°
2026-04-28 15:52 38.28601 -0.56004 107 ft 2 kts
2026-04-28 15:52 38.28586 -0.56002 107 ft 2 kts 343°
2026-04-28 15:52 38.28572 -0.55995 107 ft 2 kts 326°
2026-04-28 15:53 38.28561 -0.55983 107 ft 2 kts 309°
2026-04-28 15:53 38.28553 -0.55967 106 ft 2 kts 291°
2026-04-28 15:53 38.28550 -0.55956 106 ft 1 kts 281°
2026-04-28 15:53 38.28550 -0.55948 106 ft 0 kts 279°
2026-04-28 15:54 38.28550 -0.55949 106 ft 0 kts 279°
2026-04-28 15:56 38.28553 -0.55971 106 ft 5 kts 284°
2026-04-28 15:56 38.28573 -0.56041 107 ft 9 kts 285°
2026-04-28 15:56 38.28586 -0.56120 109 ft 8 kts 280°
2026-04-28 15:57 38.28595 -0.56187 111 ft 7 kts 279°
2026-04-28 15:57 38.28603 -0.56248 113 ft 6 kts 279°
2026-04-28 15:57 38.28612 -0.56314 115 ft 9 kts 279°
2026-04-28 15:57 38.28625 -0.56408 117 ft 12 kts 279°
2026-04-28 15:58 38.28642 -0.56530 120 ft 12 kts 280°
2026-04-28 15:58 38.28627 -0.56584 121 ft 6 kts 216°
2026-04-28 15:58 38.28567 -0.56605 121 ft 11 kts 189°
2026-04-28 15:58 38.28510 -0.56644 122 ft 8 kts 259°
2026-04-28 15:59 38.28521 -0.56726 124 ft 10 kts 281°
2026-04-28 15:59 38.28531 -0.56793 127 ft 12 kts 280°
2026-04-28 15:59 38.28554 -0.56954 132 ft 16 kts 280°
2026-04-28 15:59 38.28576 -0.57106 137 ft 17 kts 280°
2026-04-28 16:00 38.28595 -0.57246 143 ft 14 kts 279°
2026-04-28 16:00 38.28610 -0.57355 147 ft 12 kts 279°
2026-04-28 16:00 38.28621 -0.57456 149 ft 10 kts 263°
2026-04-28 16:00 38.28577 -0.57505 151 ft 8 kts 189°
2026-04-28 16:01 38.28517 -0.57518 152 ft 9 kts 190°
2026-04-28 16:01 38.28460 -0.57504 151 ft 9 kts 127°
2026-04-28 16:01 38.28439 -0.57407 148 ft 13 kts 99°
2026-04-28 16:01 38.28396 -0.57096 137 ft 67 kts 99°
2026-04-28 16:02 38.28277 -0.56251 111 ft 125 kts 99°
2026-04-28 16:02 38.28089 -0.54956 138 ft 160 kts 99°
2026-04-28 16:02 38.27891 -0.53572 568 ft 163 kts 99°
2026-04-28 16:02 38.27680 -0.52123 986 ft 166 kts 99°
2026-04-28 16:03 38.27437 -0.50667 1378 ft 168 kts 97°
2026-04-28 16:03 38.27534 -0.49174 1615 ft 180 kts 64°
2026-04-28 16:03 38.28217 -0.47797 1999 ft 185 kts 58°
2026-04-28 16:03 38.28925 -0.46417 2485 ft 185 kts 58°
2026-04-28 16:04 38.29649 -0.45008 2754 ft 200 kts 58°
2026-04-28 16:04 38.30456 -0.43441 2945 ft 218 kts 58°
2026-04-28 16:04 38.31318 -0.41776 3308 ft 233 kts 58°
2026-04-28 16:04 38.32222 -0.40032 3949 ft 237 kts 58°
2026-04-28 16:05 38.32948 -0.38182 4578 ft 240 kts 70°
2026-04-28 16:05 38.33557 -0.36201 5201 ft 245 kts 69°
2026-04-28 16:05 38.34193 -0.34149 5802 ft 252 kts 70°
2026-04-28 16:05 38.34842 -0.32053 6409 ft 257 kts 70°
2026-04-28 16:06 38.35506 -0.29913 7042 ft 260 kts 70°
2026-04-28 16:06 38.36180 -0.27772 7617 ft 267 kts 68°
2026-04-28 16:06 38.36929 -0.25517 7979 ft 283 kts 68°
2026-04-28 16:06 38.37710 -0.23173 8486 ft 292 kts 68°
2026-04-28 16:07 38.38515 -0.20761 9120 ft 297 kts 68°
2026-04-28 16:07 38.39321 -0.18343 9752 ft 302 kts 68°
2026-04-28 16:07 38.40985 -0.13342 11027 ft 311 kts 68°
2026-04-28 16:08 38.41837 -0.10782 11677 ft 315 kts 68°
2026-04-28 16:08 38.42693 -0.08204 12263 ft 320 kts 68°
2026-04-28 16:08 38.43615 -0.05609 12804 ft 327 kts 60°
2026-04-28 16:09 38.47248 -0.01740 12965 ft 368 kts 15°
2026-04-28 16:09 38.49822 -0.01258 13260 ft 377 kts 357°
2026-04-28 16:09 38.52497 -0.01281 13819 ft 384 kts 356°
2026-04-28 16:10 38.57875 -0.01280 15121 ft 391 kts 357°
2026-04-28 16:10 38.60641 -0.01267 15777 ft 394 kts 357°
2026-04-28 16:10 38.66171 -0.01234 16978 ft 401 kts 357°
2026-04-28 16:11 38.71811 -0.01199 18122 ft 409 kts 357°
2026-04-28 16:11 38.77537 -0.01161 19318 ft 414 kts 357°
2026-04-28 16:12 38.83347 -0.01124 20502 ft 419 kts 358°
2026-04-28 16:12 38.86242 -0.01105 21059 ft 421 kts 358°
2026-04-28 16:13 38.92170 -0.01066 22184 ft 425 kts 358°
2026-04-28 16:13 38.95131 -0.01047 22700 ft 428 kts 358°
2026-04-28 16:13 39.01135 -0.01008 23700 ft 433 kts 358°
2026-04-28 16:14 39.07188 -0.00969 24606 ft 439 kts 358°
2026-04-28 16:14 39.13290 -0.00929 25394 ft 447 kts 359°
2026-04-28 16:15 39.19603 -0.00887 26324 ft 451 kts
2026-04-28 16:15 39.22715 -0.00866 26942 ft 449 kts
2026-04-28 16:15 39.25834 -0.00845 27595 ft 446 kts
2026-04-28 16:16 39.32077 -0.00804 28231 ft 455 kts
2026-04-28 16:16 39.35263 -0.00723 28603 ft 457 kts
2026-04-28 16:17 39.41341 0.01412 29747 ft 450 kts 18°
2026-04-28 16:17 39.44338 0.02584 30335 ft 447 kts 18°
2026-04-28 16:17 39.47284 0.03696 30845 ft 446 kts 17°
2026-04-28 16:17 39.50261 0.04803 31298 ft 445 kts 17°
2026-04-28 16:18 39.53250 0.05910 31728 ft 445 kts 17°
2026-04-28 16:18 39.56239 0.07017 32156 ft 444 kts 17°
2026-04-28 16:18 39.59183 0.08107 32603 ft 442 kts 17°
2026-04-28 16:18 39.62175 0.09217 33057 ft 441 kts 17°
2026-04-28 16:19 39.65113 0.10307 33468 ft 440 kts 17°
2026-04-28 16:19 39.68079 0.11409 33801 ft 441 kts 17°
2026-04-28 16:19 39.71035 0.12508 33910 ft 442 kts 17°
2026-04-28 16:19 39.74002 0.13612 33899 ft 441 kts 16°
2026-04-28 16:20 39.79892 0.15807 33889 ft 440 kts 16°
2026-04-28 16:20 39.85782 0.18005 33907 ft 441 kts 15°
2026-04-28 16:21 39.91663 0.20204 33904 ft 440 kts 15°
2026-04-28 16:21 39.97556 0.22412 33907 ft 440 kts 15°
2026-04-28 16:22 40.03457 0.24631 33904 ft 440 kts 15°
2026-04-28 16:22 40.09351 0.26852 33904 ft 440 kts 15°
2026-04-28 16:23 40.15330 0.29097 33907 ft 442 kts 16°
2026-04-28 16:23 40.21283 0.31341 33913 ft 444 kts 16°
2026-04-28 16:24 40.27168 0.33566 33914 ft 443 kts 16°
2026-04-28 16:24 40.33125 0.35823 33912 ft 443 kts 16°
2026-04-28 16:25 40.39101 0.38094 33911 ft 443 kts 16°
2026-04-28 16:25 40.45025 0.40347 33909 ft 442 kts 15°
2026-04-28 16:26 40.50954 0.42604 33908 ft 443 kts 15°
2026-04-28 16:26 40.56908 0.44875 33919 ft 444 kts 15°
2026-04-28 16:27 40.62868 0.47153 33909 ft 444 kts 15°
2026-04-28 16:28 40.71750 0.50556 33903 ft 443 kts 14°
2026-04-28 16:28 40.77703 0.52842 33903 ft 444 kts 14°
2026-04-28 16:29 40.86650 0.56285 33905 ft 445 kts 14°
2026-04-28 16:30 40.95572 0.59728 33908 ft 445 kts 14°
2026-04-28 16:30 41.01517 0.62029 33915 ft 446 kts 14°
2026-04-28 16:31 41.07489 0.64343 33926 ft 445 kts 14°
2026-04-28 16:31 41.13541 0.66705 33892 ft 445 kts 15°
2026-04-28 16:32 41.19549 0.69063 33929 ft 446 kts 15°
2026-04-28 16:32 41.28555 0.72579 33937 ft 446 kts 15°
2026-04-28 16:33 41.32550 0.74140 33942 ft 446 kts 15°
2026-04-28 16:33 41.40537 0.77268 33946 ft 446 kts 15°
2026-04-28 16:34 41.46478 0.79599 33939 ft 446 kts 14°
2026-04-28 16:34 41.52521 0.81976 33937 ft 447 kts 14°
2026-04-28 16:35 41.58516 0.84337 33935 ft 447 kts 14°
2026-04-28 16:35 41.64555 0.86721 33936 ft 447 kts 14°
2026-04-28 16:36 41.70521 0.89081 33933 ft 447 kts 14°
2026-04-28 16:36 41.76580 0.91482 33933 ft 446 kts 14°
2026-04-28 16:37 41.82534 0.93846 33942 ft 447 kts 14°
2026-04-28 16:38 41.91530 0.97427 33957 ft 447 kts 14°
2026-04-28 16:38 41.97527 0.99820 33976 ft 447 kts 14°
2026-04-28 16:39 42.03576 1.02238 33981 ft 447 kts 14°
2026-04-28 16:39 42.09519 1.04619 33982 ft 446 kts 14°
2026-04-28 16:40 42.15544 1.06641 33929 ft 441 kts 358°
2026-04-28 16:40 42.21709 1.05919 33949 ft 439 kts 351°
2026-04-28 16:41 42.27784 1.05155 33933 ft 439 kts 353°
2026-04-28 16:41 42.33944 1.04479 33952 ft 440 kts 353°
2026-04-28 16:42 42.40093 1.03814 33979 ft 440 kts 353°
2026-04-28 16:42 42.46269 1.03144 33983 ft 440 kts 352°
2026-04-28 16:43 42.52387 1.02478 33996 ft 441 kts 352°
2026-04-28 16:43 42.58590 1.01802 34001 ft 441 kts 352°
2026-04-28 16:44 42.64775 1.01127 33999 ft 441 kts 352°
2026-04-28 16:44 42.70922 1.00455 34000 ft 441 kts 352°
2026-04-28 16:45 42.77132 0.99761 33994 ft 442 kts 350°
2026-04-28 16:45 42.83104 0.97880 34006 ft 438 kts 342°
2026-04-28 16:46 42.89058 0.95762 34003 ft 438 kts 342°
2026-04-28 16:46 42.95008 0.93701 33997 ft 436 kts 343°
2026-04-28 16:47 43.00924 0.91655 33961 ft 439 kts 342°
2026-04-28 16:47 43.06923 0.89576 33937 ft 442 kts 342°
2026-04-28 16:48 43.12912 0.87502 33902 ft 439 kts 342°
2026-04-28 16:48 43.18802 0.85460 33949 ft 437 kts 342°
2026-04-28 16:49 43.24760 0.83384 33941 ft 438 kts 342°
2026-04-28 16:49 43.30715 0.81305 33939 ft 437 kts 342°
2026-04-28 16:50 43.36659 0.79225 33937 ft 441 kts 342°
2026-04-28 16:50 43.42633 0.77130 33939 ft 443 kts 342°
2026-04-28 16:51 43.48573 0.74840 33943 ft 440 kts 338°
2026-04-28 16:51 43.54400 0.72144 33934 ft 440 kts 338°
2026-04-28 16:52 43.60220 0.69481 33932 ft 440 kts 338°
2026-04-28 16:52 43.66089 0.66803 33934 ft 440 kts 338°
2026-04-28 16:53 43.71947 0.64125 33933 ft 441 kts 338°
2026-04-28 16:53 43.77805 0.61442 33934 ft 440 kts 337°
2026-04-28 16:54 43.83637 0.58765 33933 ft 440 kts 337°
2026-04-28 16:54 43.89463 0.56084 33934 ft 440 kts 337°
2026-04-28 16:55 43.95334 0.53380 33939 ft 440 kts 337°
2026-04-28 16:55 44.01204 0.50668 33942 ft 440 kts 337°
2026-04-28 16:56 44.07070 0.47953 33936 ft 441 kts 337°
2026-04-28 16:56 44.12809 0.45295 33895 ft 440 kts 337°
2026-04-28 16:57 44.18458 0.42680 33936 ft 440 kts 338°
2026-04-28 16:57 44.24294 0.39964 33937 ft 439 kts 338°
2026-04-28 16:58 44.30136 0.37238 33939 ft 439 kts 338°
2026-04-28 16:58 44.35899 0.34541 33931 ft 439 kts 337°
2026-04-28 16:59 44.41721 0.31792 33932 ft 439 kts 336°
2026-04-28 16:59 44.47574 0.29038 33924 ft 439 kts 335°
2026-04-28 17:00 44.53405 0.26293 33920 ft 440 kts 335°
2026-04-28 17:00 44.59279 0.23524 33921 ft 439 kts 335°
2026-04-28 17:01 44.65093 0.20775 33914 ft 440 kts 335°
2026-04-28 17:01 44.70972 0.17991 33917 ft 440 kts 335°
2026-04-28 17:02 44.76791 0.15229 33920 ft 441 kts 335°
2026-04-28 17:02 44.82702 0.12418 33912 ft 441 kts 335°
2026-04-28 17:03 44.91445 0.08248 33916 ft 441 kts 335°
2026-04-28 17:03 44.97337 0.05429 33906 ft 442 kts 335°
2026-04-28 17:04 45.06113 0.01222 33915 ft 443 kts 335°
2026-04-28 17:05 45.14899 -0.02993 33913 ft 439 kts 334°
2026-04-28 17:06 45.23657 -0.07215 33954 ft 440 kts 335°
2026-04-28 17:06 45.32433 -0.11466 33928 ft 439 kts 335°
2026-04-28 17:07 45.38275 -0.14303 33931 ft 441 kts 334°
2026-04-28 17:07 45.44101 -0.17138 33926 ft 440 kts 334°
2026-04-28 17:08 45.49965 -0.19998 33930 ft 440 kts 334°
2026-04-28 17:08 45.55660 -0.22782 33932 ft 441 kts 334°
2026-04-28 17:09 45.61433 -0.25610 33937 ft 439 kts 334°
2026-04-28 17:09 45.65816 -0.27761 33932 ft 439 kts 334°
2026-04-28 17:10 45.71589 -0.30601 33930 ft 441 kts 334°
2026-04-28 17:10 45.77405 -0.33467 33934 ft 440 kts 334°
2026-04-28 17:11 45.83208 -0.36333 33931 ft 441 kts 334°
2026-04-28 17:11 45.89040 -0.39221 33926 ft 443 kts 334°
2026-04-28 17:12 45.94880 -0.42117 33933 ft 441 kts 334°
2026-04-28 17:12 46.00733 -0.45029 33935 ft 443 kts 334°
2026-04-28 17:13 46.06581 -0.47941 33915 ft 441 kts 334°
2026-04-28 17:13 46.12415 -0.50852 33887 ft 443 kts 334°
2026-04-28 17:14 46.18170 -0.53719 33932 ft 443 kts 334°
2026-04-28 17:14 46.23926 -0.56605 33889 ft 441 kts 334°
2026-04-28 17:15 46.29708 -0.59513 33915 ft 441 kts 334°
2026-04-28 17:15 46.35545 -0.62455 33952 ft 444 kts 334°
2026-04-28 17:16 46.41354 -0.65388 33922 ft 441 kts 333°
2026-04-28 17:16 46.44285 -0.66592 33938 ft 449 kts 344°
2026-04-28 17:16 46.47337 -0.67158 33939 ft 453 kts 347°
2026-04-28 17:17 46.53667 -0.68103 33947 ft 454 kts 347°
2026-04-28 17:17 46.59883 -0.69126 33944 ft 454 kts 347°
2026-04-28 17:18 46.66219 -0.70194 33977 ft 455 kts 347°
2026-04-28 17:18 46.72489 -0.71252 33947 ft 455 kts 347°
2026-04-28 17:19 46.78747 -0.72311 33962 ft 455 kts 347°
2026-04-28 17:19 46.85102 -0.73389 33957 ft 455 kts 347°
2026-04-28 17:20 46.90382 -0.74287 33958 ft 456 kts 347°
2026-04-28 17:20 46.97767 -0.75545 33965 ft 457 kts 347°
2026-04-28 17:21 47.04082 -0.76622 33980 ft 455 kts 347°
2026-04-28 17:22 47.13662 -0.78262 33940 ft 458 kts 348°
2026-04-28 17:22 47.19983 -0.79344 33970 ft 458 kts 348°
2026-04-28 17:23 47.29530 -0.80988 33977 ft 457 kts 348°
2026-04-28 17:23 47.35947 -0.82098 33977 ft 458 kts 349°
2026-04-28 17:24 47.42260 -0.83192 33966 ft 459 kts 349°
2026-04-28 17:24 47.48635 -0.84299 33979 ft 459 kts 349°
2026-04-28 17:25 47.58154 -0.86315 33966 ft 453 kts 346°
2026-04-28 17:26 47.64446 -0.88021 33979 ft 458 kts 346°
2026-04-28 17:26 47.70668 -0.89675 34004 ft 455 kts 346°
2026-04-28 17:27 47.76998 -0.91360 33990 ft 456 kts 347°
2026-04-28 17:27 47.83274 -0.93032 33994 ft 456 kts 347°
2026-04-28 17:28 47.89578 -0.94716 33977 ft 454 kts 347°
2026-04-28 17:28 47.98974 -0.97234 33997 ft 457 kts 347°
2026-04-28 17:29 48.05271 -0.98927 34024 ft 455 kts 347°
2026-04-28 17:30 48.14767 -1.01483 34030 ft 455 kts 348°
2026-04-28 17:30 48.24110 -1.04007 34043 ft 455 kts 348°
2026-04-28 17:31 48.33551 -1.06572 34037 ft 454 kts 349°
2026-04-28 17:32 48.42875 -1.09115 34033 ft 454 kts 349°
2026-04-28 17:32 48.49182 -1.10841 34036 ft 454 kts 349°
2026-04-28 17:33 48.55426 -1.12553 34057 ft 452 kts 349°
2026-04-28 17:33 48.59600 -1.13700 34056 ft 452 kts 349°
2026-04-28 17:34 48.67935 -1.15996 34056 ft 451 kts 350°
2026-04-28 17:34 48.74116 -1.17704 34053 ft 452 kts 349°
2026-04-28 17:35 48.80394 -1.19443 34058 ft 451 kts 350°
2026-04-28 17:35 48.86610 -1.21169 34061 ft 450 kts 350°
2026-04-28 17:36 48.92813 -1.22896 34062 ft 450 kts 350°
2026-04-28 17:36 48.98984 -1.24618 34079 ft 448 kts 350°
2026-04-28 17:37 49.01167 -1.25229 34070 ft 448 kts 350°
2026-04-28 17:47 49.06739 -1.26789 34081 ft 448 kts 350°
2026-04-28 17:47 49.12951 -1.28531 34047 ft 448 kts 351°
2026-04-28 17:48 49.19163 -1.30274 34087 ft 447 kts 351°
2026-04-28 17:48 49.25265 -1.31995 34096 ft 447 kts 351°
2026-04-28 17:49 49.31435 -1.33740 34101 ft 447 kts 351°
2026-04-28 17:49 49.37558 -1.35476 34103 ft 446 kts 351°
2026-04-28 17:50 49.43709 -1.37225 34110 ft 445 kts 351°
2026-04-28 17:50 49.49796 -1.38960 34108 ft 444 kts 351°
2026-04-28 17:51 49.55920 -1.40709 34130 ft 442 kts 352°
2026-04-28 17:51 49.62010 -1.41597 34145 ft 436 kts
2026-04-28 17:52 49.68098 -1.40909 34137 ft 437 kts
2026-04-28 17:52 49.77253 -1.40056 34139 ft 435 kts
2026-04-28 17:53 49.79995 -1.39813 34141 ft 435 kts
2026-04-28 17:53 49.86053 -1.39276 34136 ft 435 kts
2026-04-28 17:54 49.92131 -1.38736 34136 ft 433 kts
2026-04-28 17:54 49.98119 -1.38202 34143 ft 432 kts
2026-04-28 17:55 50.04105 -1.37090 34111 ft 428 kts 13°
2026-04-28 17:55 50.07069 -1.36313 34228 ft 429 kts 13°
2026-04-28 17:55 50.10025 -1.35555 34112 ft 431 kts 12°
2026-04-28 17:56 50.15868 -1.34099 34165 ft 427 kts 13°
2026-04-28 17:56 50.21508 -1.32695 34162 ft 428 kts 13°
2026-04-28 17:57 50.27141 -1.31288 34159 ft 427 kts 13°
2026-04-28 17:57 50.33110 -1.29792 34175 ft 427 kts 13°
2026-04-28 17:58 50.38973 -1.28321 34180 ft 425 kts 13°
2026-04-28 17:58 50.44846 -1.26842 34175 ft 425 kts 13°
2026-04-28 17:59 50.50634 -1.25117 34165 ft 417 kts 26°
2026-04-28 17:59 50.53140 -1.22930 34206 ft 410 kts 37°
2026-04-28 17:59 50.55442 -1.20512 34193 ft 412 kts 37°
2026-04-28 18:00 50.60255 -1.15590 34180 ft 412 kts 36°
2026-04-28 18:00 50.65149 -1.10703 34190 ft 412 kts 36°
2026-04-28 18:01 50.69987 -1.05879 34181 ft 410 kts 36°
2026-04-28 18:01 50.74823 -1.01049 34193 ft 408 kts 36°
2026-04-28 18:02 50.79657 -0.96206 34202 ft 409 kts 36°
2026-04-28 18:02 50.84864 -0.92192 34225 ft 417 kts 22°
2026-04-28 18:03 50.90416 -0.89457 34220 ft 416 kts 22°
2026-04-28 18:03 50.95853 -0.86682 34197 ft 406 kts 23°
2026-04-28 18:04 51.01173 -0.83925 34261 ft 408 kts 23°
2026-04-28 18:04 51.06571 -0.81120 34270 ft 410 kts 23°
2026-04-28 18:05 51.10650 -0.78997 34229 ft 414 kts 22°
2026-04-28 18:05 51.17215 -0.75587 34241 ft 413 kts 23°
2026-04-28 18:06 51.22610 -0.72767 34263 ft 409 kts 23°
2026-04-28 18:06 51.27875 -0.70005 34241 ft 408 kts 23°
2026-04-28 18:07 51.33223 -0.67191 34255 ft 409 kts 24°
2026-04-28 18:07 51.37011 -0.65194 34264 ft 407 kts 23°
2026-04-28 18:08 51.42218 -0.62445 34290 ft 407 kts 24°
2026-04-28 18:08 51.47592 -0.59601 34271 ft 404 kts 24°
2026-04-28 18:09 51.52893 -0.56786 34276 ft 405 kts 24°
2026-04-28 18:09 51.58192 -0.53968 34296 ft 401 kts 24°
2026-04-28 18:10 51.63442 -0.51168 34263 ft 401 kts 24°
2026-04-28 18:10 51.68744 -0.48332 34281 ft 402 kts 24°
2026-04-28 18:11 51.74031 -0.45496 34291 ft 397 kts 24°
2026-04-28 18:11 51.79261 -0.42881 34277 ft 404 kts 14°
2026-04-28 18:12 51.82138 -0.43170 34293 ft 425 kts 352°
2026-04-28 18:12 51.84842 -0.45217 34310 ft 446 kts 333°
2026-04-28 18:12 51.89978 -0.50935 34316 ft 446 kts 335°
2026-04-28 18:13 51.95203 -0.56188 34300 ft 443 kts 337°
2026-04-28 18:13 52.00485 -0.61357 34313 ft 440 kts 337°
2026-04-28 18:14 52.05741 -0.66504 34288 ft 442 kts 338°
2026-04-28 18:14 52.10853 -0.71523 34290 ft 441 kts 338°
2026-04-28 18:15 52.16071 -0.76654 34297 ft 442 kts 338°
2026-04-28 18:15 52.21277 -0.81799 34299 ft 439 kts 338°
2026-04-28 18:16 52.26540 -0.87013 34297 ft 440 kts 338°
2026-04-28 18:16 52.31793 -0.92236 34311 ft 438 kts 338°
2026-04-28 18:17 52.36963 -0.97386 34310 ft 436 kts 338°
2026-04-28 18:17 52.42137 -1.02553 34303 ft 437 kts 338°
2026-04-28 18:18 52.47232 -1.07657 34318 ft 436 kts 338°
2026-04-28 18:18 52.51553 -1.12007 33554 ft 436 kts 338°
2026-04-28 18:19 52.55056 -1.15525 31907 ft 448 kts 338°
2026-04-28 18:19 52.57688 -1.18180 30963 ft 448 kts 338°
2026-04-28 18:19 52.60247 -1.20771 30216 ft 444 kts 338°
2026-04-28 18:19 52.62665 -1.23219 29549 ft 439 kts 338°
2026-04-28 18:20 52.65323 -1.25909 28717 ft 436 kts 338°
2026-04-28 18:20 52.67886 -1.28502 27886 ft 433 kts 337°
2026-04-28 18:20 52.70414 -1.31070 27277 ft 426 kts 337°
2026-04-28 18:20 52.72887 -1.33593 26761 ft 417 kts 337°
2026-04-28 18:21 52.75369 -1.36115 26222 ft 424 kts 337°
2026-04-28 18:21 52.77896 -1.38681 25658 ft 431 kts 336°
2026-04-28 18:21 52.80416 -1.41263 25077 ft 423 kts 336°
2026-04-28 18:21 52.82896 -1.43803 24467 ft 415 kts 336°
2026-04-28 18:22 52.85354 -1.46323 23900 ft 407 kts 336°
2026-04-28 18:22 52.87758 -1.48787 23356 ft 400 kts 336°
2026-04-28 18:22 52.90131 -1.51221 22815 ft 400 kts 336°
2026-04-28 18:22 52.92543 -1.53689 22273 ft 408 kts 336°
2026-04-28 18:23 52.94934 -1.56154 21707 ft 401 kts 336°
2026-04-28 18:23 52.97269 -1.58566 21175 ft 393 kts 336°
2026-04-28 18:23 52.99604 -1.60977 20618 ft 387 kts 336°
2026-04-28 18:23 53.01877 -1.63325 20089 ft 379 kts 336°
2026-04-28 18:24 53.04040 -1.65565 19619 ft 373 kts 335°
2026-04-28 18:24 53.04907 -1.66450 19430 ft 371 kts 337°
2026-04-28 18:24 53.07552 -1.68402 18885 ft 370 kts 347°
2026-04-28 18:24 53.08243 -1.68820 18747 ft 373 kts 347°